Location: *
(41.7492°S, 135.4150°W)
Time: 00:33:26
(UTC+00:00)

OAO 2 Rocket - Pass Details

Date: 20 September 2021
Orbit: 676 x 745 km, 35.0° (Epoch: 25 October)

Event Time Altitude Azimuth Distance (km) Brightness Sun altitude
Exits shadow 14:23:26 - 300° (WNW) 2,545 5.6 -6.4°
Reaches altitude 10° 14:24:39 10° 305° (NW) 2,118 5.3 -6.2°
Maximum altitude 14:29:06 34° 9° (N) 1,109 4.4 -5.4°
Drops below altitude 10° 14:33:35 10° 74° (ENE) 2,124 7.3 -4.6°
Sets 14:36:09 0° 82° (E) 3,045 8.9 -4.1°
